Flag for China Weather past 2 weeks in Shantou, Guangdong, China

Now
84 °F

Broken clouds.


Feels Like: 96 °F
Forecast: 80 / 87 °F
Wind: 3 mph from Southwest

Location: Shantou Airport

Current Time: May 27, 2015 at 4:41:33 PM

Latest Report: May 27, 2015 at 4:00 PM


Visibility: N/A

Pressure: 29.71 "Hg

Humidity: 84%

Dew point: 79 °F

Location of ShantouLocation

Historic Weather in Shantou — Graph

°F

Shantou temperature yesterday

Maximum temperature yesterday: 77 °F (at 3:00 PM)
Minimum temperature yesterday: 72 °F (at 12:00 AM)
Average temperature yesterday: 74 °F

Past Weeks' High & Low Weather Summary

 TemperatureHumidityPressure
High91 °F (May 15, 4:00 PM)100% (May 13, 1:00 AM)29.95 "Hg (May 13, 1:00 AM)
Low68 °F (May 13, 6:00 AM)24% (May 12, 3:00 PM)29.65 "Hg (May 23, 6:00 PM)
Average78 °F91%29.80 "Hg
* Reported May 12 3:00 PM — May 27 3:00 PM, Shantou, Weather by CustomWeather, © 2015

Note: Actual official high and low records may vary slightly from our data, if they occured in-between our weather recording intervals... More about our weather records

Advertising

Shantou weather history for previous 24 hours

 ConditionsComfort  
Time TempWeatherWind HumidityBarometerVisibility
3:00 PM
Wed, May 27
84 °FBroken clouds.6 mph84%29.71 "HgN/A
2:00 PM84 °FBroken clouds.1 mph84%29.74 "Hg4 mi
1:00 PM82 °FFog.3 mph89%29.77 "Hg2 mi
12:00 PM81 °FFog.6 mph89%29.80 "Hg3 mi
11:00 AM81 °FFog.6 mph89%29.80 "Hg3 mi
10:00 AM77 °FFog.3 mph100%29.83 "Hg3 mi
9:00 AM75 °FFog.3 mph100%29.83 "Hg2 mi
8:00 AM75 °FFog.3 mph100%29.83 "Hg1 mi
7:00 AM73 °FFog.6 mph100%29.80 "Hg1 mi
6:00 AM73 °FFog.3 mph100%29.80 "Hg1 mi
5:00 AM73 °FFog.3 mph100%29.80 "Hg2 mi
4:00 AM73 °FSprinkles. Fog.1 mph100%29.80 "Hg1 mi
3:00 AM73 °FLight rain. Fog.6 mph100%29.77 "Hg1 mi
2:00 AM73 °FFog.6 mph100%29.80 "Hg2 mi
1:00 AM73 °FFog.3 mph100%29.80 "Hg2 mi
12:00 AM75 °FLight rain. Fog.3 mph100%29.83 "Hg2 mi
11:00 PM
Tue, May 26
73 °FFog.3 mph100%29.83 "Hg2 mi
10:00 PM73 °FFog.6 mph100%29.80 "Hg2 mi
9:00 PM73 °FFog.3 mph100%29.80 "Hg1 mi
8:00 PM73 °FLight rain. Fog.3 mph100%29.80 "Hg1 mi
7:00 PM73 °FLight rain. Fog.1 mph100%29.80 "Hg1 mi
6:00 PM75 °FLight rain. Fog.3 mph100%29.80 "Hg1 mi
5:00 PM77 °FLight rain. Fog.3 mph94%29.77 "Hg2 mi
4:00 PM77 °FFog.1 mph94%29.80 "Hg3 mi
Weather by CustomWeather, © 2015

See weather overviewHow to use our weather pages